[[[{"header":{"parameterUnit":"kt","parameterCategory":2,"dx":1,"dy":1,"la1":30.253999710083008,"la2":30.299108505249023,"lo1":-89.0895004272461,"lo2":-89.04439544677734,"nx":28,"ny":28,"refTime":"2022-10-14T21:00:00:Z","depth":"0","parameterNumber":2,"parameterNumberName":"U-component_of_CURRENTS"},"data":[-0.0899,-0.0865,-0.0818,-0.0788,-0.0798,-0.0758,-0.0763,-0.0781,-0.0926,-0.1227,-0.1514,-0.1789,-0.1939,-0.2137,-0.1951,-0.183,-0.1744,-0.1732,-0.1828,-0.1769,-0.1788,-0.1805,-0.1643,-0.1634,-0.1634,-0.152,-0.1519,-0.1519,-0.0873,-0.0823,-0.085,-0.0871,-0.0895,-0.094,-0.1011,-0.0996,-0.1144,-0.1484,-0.1776,-0.2125,-0.2179,-0.2238,-0.2147,-0.2058,-0.1936,-0.2,-0.1866,-0.1816,-0.1925,-0.1761,-0.1777,-0.1777,-0.1777,-0.1777,-0.1777,-0.1777,-0.0812,-0.0829,-0.0839,-0.0893,-0.0963,-0.1009,-0.1017,-0.1158,-0.1319,-0.1566,-0.1909,-0.2194,-0.2354,-0.2547,-0.2561,-0.2386,-0.2476,-0.2216,-0.2266,-0.2304,-0.211,-0.2197,-0.242,-0.2422,-0.2425,-0.2427,-0.2428,0,-0.0761,-0.0757,-0.0824,-0.0882,-0.0948,-0.1034,-0.113,-0.121,-0.1381,-0.1572,-0.1882,-0.2099,-0.2427,-0.2509,-0.2676,-0.2677,-0.2453,-0.2562,-0.251,-0.1992,-0.1945,-0.1827,-0.1895,-0.22,-0.2201,-0.2202,-0.2203,-0.2204,-0.0648,-0.071,-0.0819,-0.0866,-0.0918,-0.1032,-0.1101,-0.1222,-0.1303,-0.1618,-0.1707,-0.201,-0.2219,-0.2545,-0.2559,-0.2698,-0.2601,-0.2588,-0.2332,-0.2227,-0.2209,-0.2199,-0.2107,-0.2219,-0.2217,-0.2215,-0.2214,0,-0.0576,-0.0625,-0.0763,-0.0893,-0.0934,-0.1025,-0.1148,-0.1241,-0.1361,-0.1535,-0.1583,-0.1807,-0.2029,-0.2133,-0.2336,-0.2312,-0.2408,-0.2502,-0.2252,-0.2203,-0.2131,-0.2124,-0.2493,-0.2422,-0.2677,-0.2679,-0.2681,0,-0.0487,-0.0603,-0.0671,-0.0744,-0.0902,-0.0972,-0.1128,-0.1217,-0.135,-0.1473,-0.1529,-0.1679,-0.1739,-0.1912,-0.1921,-0.209,-0.2155,-0.207,-0.2056,-0.1827,-0.1802,-0.1715,-0.169,-0.2106,-0.2103,-0.21,-0.2098,0,-0.0328,-0.0513,-0.0638,-0.0692,-0.0843,-0.0927,-0.1002,-0.1139,-0.1216,-0.1365,-0.1439,-0.1573,-0.1623,-0.1729,-0.1746,-0.1635,-0.2004,-0.1831,-0.1924,-0.1922,-0.1748,-0.1718,-0.1995,-0.2094,-0.2093,-0.2092,-0.2091,0,-0.0239,-0.0321,-0.0501,-0.0635,-0.0685,-0.0791,-0.0966,-0.1065,-0.1201,-0.1233,-0.1315,-0.1292,-0.1415,-0.1282,-0.1486,-0.1357,-0.1416,-0.1435,-0.1447,-0.138,-0.1207,-0.131,-0.1613,-0.1528,-0.1502,-0.1497,-0.1492,0,-0.0057,-0.0229,-0.0249,-0.0449,-0.0549,-0.0581,-0.0713,-0.0809,-0.086,-0.098,-0.0977,-0.1033,-0.092,-0.0914,-0.1019,-0.1,-0.117,-0.0963,-0.1136,-0.1143,-0.1114,-0.1435,-0.1218,-0.1532,-0.1424,-0.1432,-0.1437,0,0.0101,0.0013,-0.0019,-0.0079,-0.0198,-0.0276,-0.0424,-0.0549,-0.0633,-0.0689,-0.0817,-0.083,-0.0779,-0.0768,-0.0692,-0.0793,-0.1052,-0.0698,-0.0698,-0.0853,-0.1357,-0.134,-0.1385,-0.0995,-0.1003,-0.1009,-0.1383,0,0.0263,0.018,0.0111,0.0009,-0.0065,-0.0177,-0.0223,-0.0302,-0.0307,-0.033,-0.0435,-0.0399,-0.0424,-0.0414,-0.0343,-0.052,-0.05,-0.0396,-0.0308,-0.0502,-0.0633,-0.0677,-0.0097,-0.0093,-0.0089,-0.0086,0,0,0.0434,0.0345,0.0354,0.0255,0.019,0.0201,0.008,0.0037,-0.0033,-0.0073,-0.0016,-0.0082,-0.003,-0.0132,-0.0175,-0.014,-0.0204,-0.0114,-0.0379,-0.0412,-0.0442,-0.058,-0.0626,-0.0079,-0.0078,-0.0077,-0.0076,0,0.0503,0.0488,0.0406,0.0351,0.0279,0.0256,0.0221,0.0166,0.0147,0.0048,0.0126,0.0093,0.0079,0.0081,0.0092,-0.008,-0.0037,-0.0051,-0.0228,-0.0342,-0.038,-0.0414,-0.0557,-0.0601,-0.0066,-0.0067,-0.0067,0,0.063,0.0604,0.0572,0.049,0.0453,0.0355,0.0437,0.0348,0.027,0.039,0.0283,0.0322,0.0368,0.0289,0.0264,0.032,0.0088,0.0227,0.0209,0.0176,0.0063,0.002,-0.0018,0.047,0.0471,0.0472,0,0,0.0677,0.0627,0.0584,0.0501,0.0469,0.0453,0.0413,0.0414,0.0389,0.038,0.0395,0.0415,0.0409,0.0398,0.0401,0.0322,0.0293,0.0286,0.0261,0.0239,0.0196,0.0078,0.0037,0.0476,0.0476,0.0476,0,0,0.07,0.0667,0.0681,0.0589,0.053,0.05,0.044,0.0456,0.0426,0.0439,0.0512,0.0519,0.0451,0.0498,0.0544,0.0441,0.0554,0.0545,0.0391,0.0361,0.0337,0.0284,0.0677,0,0,0,0,0,0.0748,0.0669,0.0682,0.0665,0.0587,0.0491,0.048,0.0488,0.0535,0.048,0.0501,0.0587,0.0535,0.0577,0.058,0.0512,0.0532,0.0522,0.0512,0.0298,0.0266,0.0238,0,0,0,0,0,0,0.0741,0.0721,0.0684,0.0651,0.0633,0.0496,0.0587,0.0587,0.054,0.0547,0.0577,0.0588,0.0643,0.0583,0.0583,0.0517,0.0677,0.0528,0.0519,0.0512,0.0287,0.026,0.0237,0,0,0,0,0,0.0735,0.0719,0.0595,0.0653,0.0637,0.0622,0.0591,0.0591,0.0559,0.0605,0.0614,0.0562,0.064,0.0645,0.0584,0.0515,0.0678,0.0678,0.0522,0.0516,0.051,0.0274,0,0,0,0,0,0,0.0731,0.0729,0.0592,0.0586,0.0683,0.0629,0.0622,0.0595,0.0622,0.0626,0.0598,0.0604,0.0637,0.0642,0.0644,0.0508,0.0678,0.0678,0.0678,0.0517,0.0512,0.0507,0,0,0,0,0,0,0.0737,0.0725,0.0589,0.0628,0.0627,0.0635,0.0629,0.0616,0.0625,0.0616,0.062,0.06,0.0655,0.0639,0.0641,0.0619,0.0678,0.0678,0.0678,0.0678,0.0513,0.0509,0,0,0,0,0,0,0.0732,0.0722,0.063,0.0629,0.0629,0.0577,0.0628,0.0566,0.0599,0.0618,0.0607,0.0611,0.0652,0.0655,0.0639,0.0615,0.0618,0.0678,0.0678,0.0678,0.0678,0,0,0,0,0,0,0,0.0728,0.0798,0.0615,0.063,0.0631,0.0536,0.0536,0.0535,0.06,0.0603,0.0607,0.061,0.0679,0.0679,0.0679,0.0612,0,0,0.0678,0.0678,0,0,0,0,0,0,0,0,0.0802,0.0799,0.0614,0.0613,0.0611,0.0536,0.0536,0.0535,0.0601,0.0603,0.0606,0.0608,0.0679,0.0679,0.0679,0,0,0,0,0,0,0,0,0,0,0,0,0,0,0,0.0614,0.0613,0,0.0536,0.0536,0.0535,0.0601,0.0603,0.0605,0.0607,0.0679,0.0679,0.0679,0,0,0,0,0,0,0,0,0,0,0,0,0,0,0,0,0,0,0,0,0,0,0,0,0,0,0,0,0,0,0,0,0,0,0,0,0,0,0,0,0,0,0,0,0,0,0,0,0,0,0,0,0,0,0,0,0,0,0,0,0,0,0,0,0,0,0,0,0]}],[{"header":{"parameterUnit":"kt","parameterCategory":2,"dx":1,"dy":1,"la1":30.253999710083008,"la2":30.299108505249023,"lo1":-89.0895004272461,"lo2":-89.04439544677734,"nx":28,"ny":28,"refTime":"2022-10-14T21:00:00:Z","depth":"0","parameterNumber":3,"parameterNumberName":"V-component_of_CURRENTS"},"data":[-0.0568,-0.0675,-0.0741,-0.0962,-0.105,-0.1228,-0.1328,-0.1486,-0.1475,-0.1292,-0.0787,-0.0306,0.0783,0.165,0.2259,0.2289,0.2581,0.2499,0.2678,0.2384,0.2353,0.2323,0.2379,0.2625,0.2626,0.3169,0.3174,0.3178,-0.0543,-0.0603,-0.0707,-0.0839,-0.0975,-0.0989,-0.116,-0.126,-0.1444,-0.1421,-0.142,-0.0548,0.0043,0.0726,0.15,0.1779,0.188,0.1904,0.2052,0.2134,0.1634,0.1663,0.176,0.176,0.176,0.176,0.1759,0.1759,-0.0493,-0.0547,-0.062,-0.0714,-0.0802,-0.0944,-0.1025,-0.1128,-0.1253,-0.132,-0.1246,-0.1012,-0.0327,0.0438,0.0681,0.1264,0.1266,0.1475,0.1567,0.1621,0.1763,0.1163,0.1197,0.1197,0.1197,0.1197,0.1197,0,-0.045,-0.0469,-0.0514,-0.0618,-0.0674,-0.0752,-0.0798,-0.0879,-0.0856,-0.0915,-0.0974,-0.0893,-0.0467,-0.0015,0.0516,0.0748,0.1229,0.1086,0.1321,0.1565,0.1625,0.1758,0.1188,0.1205,0.1204,0.1204,0.1204,0.1204,-0.0371,-0.0415,-0.0464,-0.0506,-0.0503,-0.0528,-0.0557,-0.0503,-0.0544,-0.0532,-0.0588,-0.0444,-0.0336,0.0064,0.0488,0.0864,0.1082,0.1073,0.1192,0.1387,0.151,0.1582,0.168,0.1203,0.1203,0.1203,0.1203,0,-0.0328,-0.0332,-0.0386,-0.0379,-0.0377,-0.0394,-0.0381,-0.0399,-0.0318,-0.0355,-0.0342,-0.0175,-0.0005,0.0301,0.0572,0.0789,0.1122,0.1072,0.1038,0.1061,0.1381,0.1473,0.1645,0.1769,0.1177,0.1177,0.1177,0,-0.0246,-0.0274,-0.0272,-0.0295,-0.0327,-0.0244,-0.0248,-0.0162,-0.0099,-0.0118,0.0093,0.0086,0.0408,0.0529,0.075,0.0945,0.0935,0.115,0.1175,0.1184,0.1183,0.1392,0.1489,0.1192,0.1192,0.1193,0.1193,0,-0.0162,-0.0178,-0.0218,-0.0207,-0.0161,-0.0136,-0.0087,0.0044,0.0068,0.0197,0.0186,0.0399,0.0448,0.0631,0.0841,0.0879,0.1002,0.1082,0.1173,0.1172,0.1198,0.1198,0.1414,0.1193,0.1193,0.1193,0.1193,0,-0.0068,-0.0095,-0.0134,-0.0109,-0.0104,-0.0074,0.0016,0.0082,0.0227,0.0293,0.042,0.0525,0.0678,0.076,0.0958,0.0932,0.1032,0.1121,0.1124,0.1128,0.1165,0.114,0.1165,0.1387,0.1147,0.1147,0.1147,0,0.0001,-0.0048,-0.0,-0.0009,-0.0026,0.0082,0.0147,0.0249,0.0347,0.0415,0.0595,0.0681,0.0819,0.0857,0.0955,0.1064,0.1121,0.1112,0.1166,0.1167,0.1131,0.1155,0.1166,0.1161,0.1144,0.1144,0.1145,0,0.0064,0.0073,0.0073,0.0066,0.0141,0.0155,0.024,0.0327,0.0361,0.0499,0.0548,0.0775,0.0826,0.0909,0.1021,0.1089,0.1118,0.1109,0.1112,0.1069,0.1156,0.1151,0.1152,0.1149,0.1149,0.115,0.1142,0,0.016,0.0143,0.0128,0.0146,0.0182,0.0184,0.028,0.0336,0.0409,0.0488,0.0618,0.076,0.0878,0.096,0.103,0.112,0.1102,0.114,0.1129,0.1156,0.1152,0.1153,0.1144,0.1144,0.1145,0.1145,0,0,0.0224,0.0192,0.0226,0.0217,0.0238,0.0313,0.0308,0.0382,0.0477,0.0523,0.0549,0.0766,0.087,0.1011,0.1051,0.1104,0.1098,0.1088,0.1156,0.1157,0.1158,0.1154,0.1155,0.1146,0.1146,0.1146,0.1146,0,0.0257,0.0257,0.0225,0.0254,0.0286,0.0335,0.0334,0.04,0.0455,0.0533,0.0622,0.0723,0.0855,0.0962,0.1032,0.1098,0.1109,0.1137,0.1116,0.1159,0.1159,0.116,0.1156,0.1156,0.1148,0.1148,0.1147,0,0.0313,0.0319,0.0308,0.0322,0.0352,0.0371,0.0416,0.0435,0.0479,0.0561,0.0641,0.0725,0.0844,0.0944,0.0991,0.0994,0.1104,0.11,0.11,0.1074,0.1117,0.1118,0.1119,0.1095,0.1094,0.1094,0,0,0.0337,0.0317,0.0354,0.0331,0.0339,0.0402,0.0423,0.0459,0.0521,0.0551,0.0629,0.0725,0.0823,0.0874,0.0955,0.1036,0.1041,0.1089,0.1092,0.1093,0.1068,0.1111,0.1114,0.1091,0.1091,0.1091,0,0,0.0358,0.0373,0.0389,0.0356,0.0395,0.0461,0.0464,0.0504,0.0573,0.0579,0.0671,0.0695,0.0783,0.0837,0.0796,0.0971,0.0967,0.0977,0.0925,0.0929,0.0931,0.0879,0.0845,0,0,0,0,0,0.0404,0.0367,0.038,0.0379,0.0414,0.0449,0.0461,0.0514,0.0534,0.0542,0.0622,0.0657,0.0849,0.0813,0.0833,0.0881,0.106,0.1066,0.1071,0.1024,0.1027,0.103,0,0,0,0,0,0,0.0404,0.0401,0.0382,0.0436,0.0445,0.045,0.0493,0.0509,0.0535,0.0541,0.0642,0.066,0.0723,0.0806,0.0824,0.0869,0.0839,0.1062,0.1067,0.1071,0.1025,0.1028,0.103,0,0,0,0,0,0.0404,0.0402,0.0428,0.0439,0.0447,0.0511,0.0494,0.0507,0.0535,0.0625,0.0644,0.0569,0.0721,0.0741,0.0817,0.086,0.0827,0.0834,0.1065,0.1069,0.1072,0.1026,0,0,0,0,0,0,0.0405,0.0439,0.0433,0.0439,0.0437,0.0513,0.0521,0.0505,0.062,0.0636,0.0557,0.0561,0.072,0.0736,0.0751,0.0854,0.0818,0.0824,0.0828,0.1068,0.1071,0.1074,0,0,0,0,0,0,0.044,0.0444,0.0436,0.0431,0.0438,0.0515,0.0521,0.0586,0.0622,0.0548,0.0553,0.0557,0.0701,0.0732,0.0744,0.0843,0.081,0.0816,0.0821,0.0824,0.107,0.1073,0,0,0,0,0,0,0.0444,0.0447,0.043,0.0435,0.0442,0.0529,0.0577,0.0615,0.0594,0.0543,0.0595,0.0596,0.0697,0.071,0.0739,0.0833,0.0841,0.081,0.0815,0.0818,0.082,0,0,0,0,0,0,0,0.0447,0.0397,0.0383,0.0439,0.0445,0.0502,0.0505,0.0508,0.0594,0.0595,0.0595,0.0595,0.0775,0.0782,0.0789,0.0824,0,0,0.081,0.0813,0,0,0,0,0,0,0,0,0.0399,0.0397,0.0383,0.0384,0.0385,0.0503,0.0505,0.0507,0.0594,0.0595,0.0595,0.0595,0.0777,0.0782,0.0788,0,0,0,0,0,0,0,0,0,0,0,0,0,0,0,0.0383,0.0384,0,0.0503,0.0505,0.0507,0.0594,0.0595,0.0595,0.0595,0.0778,0.0783,0.0787,0,0,0,0,0,0,0,0,0,0,0,0,0,0,0,0,0,0,0,0,0,0,0,0,0,0,0,0,0,0,0,0,0,0,0,0,0,0,0,0,0,0,0,0,0,0,0,0,0,0,0,0,0,0,0,0,0,0,0,0,0,0,0,0,0,0,0,0,0]}]],[[{"header":{"parameterUnit":"kt","parameterCategory":2,"dx":1,"dy":1,"la1":30.253999710083008,"la2":30.299108505249023,"lo1":-89.0895004272461,"lo2":-89.04439544677734,"nx":28,"ny":28,"refTime":"2022-10-14T21:00:00:Z","depth":"2","parameterNumber":2,"parameterNumberName":"U-component_of_CURRENTS"},"data":[-0.4329,-0.4275,-0.4288,-0.4082,-0.4012,-0.3791,-0.3688,-0.3345,-0.3119,-0.2625,-0.2307,-0.206,-0.212,-0.1653,-0.1525,-0.1361,-0.1579,-0.1281,-0.1975,-0.2094,-0.215,-0.2267,-0.2188,0,0,0,0,0,-0.4432,-0.4417,-0.441,-0.4348,-0.4274,-0.4305,-0.4254,-0.4056,-0.3819,-0.3599,-0.3262,-0.266,-0.2279,-0.218,-0.1832,-0.1736,-0.175,-0.1685,-0.173,-0.1793,-0.1851,-0.1756,-0.1222,-0.122,-0.1218,-0.1216,0,0,-0.4575,-0.4568,-0.4546,-0.4527,-0.4521,-0.447,-0.4377,-0.4369,-0.4272,-0.4011,-0.4016,-0.3581,-0.3416,-0.2702,-0.2491,-0.2344,-0.2542,-0.244,-0.2467,-0.25,-0.2432,-0.2413,-0.2081,-0.2085,-0.2088,-0.2091,-0.2093,0,-0.468,-0.4661,-0.4664,-0.4663,-0.4634,-0.4631,-0.4605,-0.4615,-0.4609,-0.4553,-0.4393,-0.4209,-0.3893,-0.3415,-0.3113,-0.2931,-0.3038,-0.2866,-0.3401,-0.2832,-0.2823,-0.2805,-0.2843,-0.2578,-0.2585,-0.259,-0.2593,-0.2596,-0.472,-0.4732,-0.4749,-0.4737,-0.4721,-0.4682,-0.467,-0.4674,-0.4669,-0.4613,-0.4593,-0.4435,-0.423,-0.3905,-0.3627,-0.335,-0.3509,-0.3027,-0.2982,-0.3479,-0.3456,-0.3473,-0.3488,-0.2667,-0.2658,-0.265,-0.2645,0,-0.4715,-0.4767,-0.4787,-0.4804,-0.479,-0.4751,-0.473,-0.471,-0.4675,-0.4625,-0.459,-0.4507,-0.4315,-0.419,-0.3992,-0.387,-0.3681,-0.3596,-0.3371,-0.3299,-0.3516,-0.3524,-0.3353,-0.3347,-0.3341,-0.3336,-0.3332,0,-0.4758,-0.4758,-0.4809,-0.4819,-0.4801,-0.4804,-0.4747,-0.4717,-0.467,-0.4634,-0.4548,-0.448,-0.434,-0.4231,-0.41,-0.3873,-0.3938,-0.3724,-0.3681,-0.3473,-0.3443,-0.3927,-0.3937,-0.3846,-0.3847,-0.3848,-0.3848,0,-0.4736,-0.4815,-0.484,-0.485,-0.4892,-0.4841,-0.4818,-0.4755,-0.473,-0.4607,-0.4572,-0.4437,-0.4365,-0.4235,-0.4101,-0.4103,-0.3947,-0.3945,-0.3741,-0.3732,-0.3507,-0.3478,-0.3849,-0.3849,-0.3849,-0.3849,-0.385,0,-0.477,-0.4832,-0.4884,-0.4902,-0.4906,-0.4891,-0.4815,-0.4797,-0.4706,-0.4631,-0.4519,-0.4442,-0.4341,-0.429,-0.4147,-0.4163,-0.4079,-0.4023,-0.4018,-0.39,-0.3872,-0.3556,-0.339,-0.3962,-0.3963,-0.3964,-0.3965,0,-0.4716,-0.4825,-0.4858,-0.4877,-0.4913,-0.4871,-0.4855,-0.4806,-0.4717,-0.4632,-0.4522,-0.4431,-0.4376,-0.4301,-0.4235,-0.4162,-0.4101,-0.4149,-0.4047,-0.4046,-0.3901,-0.3798,-0.3532,-0.3426,-0.3978,-0.3977,-0.3976,0,-0.4682,-0.48,-0.4789,-0.4802,-0.4826,-0.4841,-0.4809,-0.4781,-0.4729,-0.4619,-0.4534,-0.4437,-0.4359,-0.4335,-0.4277,-0.4221,-0.4125,-0.418,-0.4179,-0.4141,-0.3994,-0.3838,-0.3814,-0.4067,-0.4065,-0.4064,-0.3987,0,-0.4695,-0.4728,-0.4755,-0.4813,-0.4822,-0.4836,-0.4827,-0.4776,-0.4674,-0.4634,-0.4515,-0.4451,-0.4371,-0.4324,-0.4309,-0.4233,-0.422,-0.4209,-0.4217,-0.4181,-0.4154,-0.4145,-0.4267,-0.4268,-0.4269,-0.427,0,0,-0.46,-0.4688,-0.4717,-0.4773,-0.4774,-0.4749,-0.4776,-0.4755,-0.4708,-0.4656,-0.4587,-0.446,-0.4413,-0.436,-0.4327,-0.4318,-0.4281,-0.4289,-0.4209,-0.4202,-0.4195,-0.4167,-0.4157,-0.4272,-0.4272,-0.4273,-0.4273,0,-0.463,-0.4648,-0.4701,-0.4728,-0.4756,-0.4766,-0.4753,-0.475,-0.4686,-0.4639,-0.457,-0.449,-0.4421,-0.4385,-0.4363,-0.4334,-0.4284,-0.4288,-0.4275,-0.4218,-0.421,-0.4203,-0.4173,-0.4163,-0.4276,-0.4275,-0.4275,0,-0.4598,-0.4647,-0.4665,-0.4742,-0.4751,-0.4788,-0.4743,-0.4743,-0.4723,-0.4666,-0.4574,-0.4517,-0.4486,-0.4427,-0.439,-0.4396,-0.4302,-0.4331,-0.4327,-0.4359,-0.4302,-0.4293,-0.4285,-0.4387,-0.4387,-0.4387,0,0,-0.4608,-0.4651,-0.4713,-0.475,-0.4766,-0.4762,-0.4764,-0.4732,-0.4707,-0.467,-0.4599,-0.4533,-0.4493,-0.4448,-0.4424,-0.4392,-0.439,-0.4341,-0.4336,-0.4332,-0.436,-0.4304,-0.4296,-0.4388,-0.4388,-0.4388,0,0,-0.4601,-0.4678,-0.4667,-0.4729,-0.4754,-0.4789,-0.4781,-0.4744,-0.4687,-0.4632,-0.4575,-0.4555,-0.4474,-0.4472,-0.4481,-0.4384,-0.4411,-0.441,-0.4362,-0.4356,-0.4351,-0.4386,-0.4431,0,0,0,0,0,-0.4643,-0.4687,-0.4679,-0.4693,-0.4759,-0.4817,-0.4819,-0.4765,-0.4686,-0.4678,-0.4603,-0.4556,-0.446,-0.4469,-0.4463,-0.4394,-0.4391,-0.439,-0.439,-0.4324,-0.4317,-0.4311,0,0,0,0,0,0,-0.4649,-0.4671,-0.4677,-0.4725,-0.4739,-0.4815,-0.4741,-0.4728,-0.4684,-0.4664,-0.4577,-0.4558,-0.4529,-0.4468,-0.4464,-0.4397,-0.4433,-0.4391,-0.439,-0.439,-0.4321,-0.4316,-0.4311,0,0,0,0,0,-0.4654,-0.4671,-0.4788,-0.4722,-0.4734,-0.4693,-0.4735,-0.4723,-0.466,-0.4634,-0.461,-0.4607,-0.4535,-0.4521,-0.4466,-0.4399,-0.4435,-0.4434,-0.4391,-0.439,-0.439,-0.4319,0,0,0,0,0,0,-0.4658,-0.4652,-0.4789,-0.479,-0.4667,-0.4683,-0.4683,-0.472,-0.4627,-0.461,-0.4668,-0.4655,-0.454,-0.4528,-0.4519,-0.4399,-0.4437,-0.4436,-0.4435,-0.439,-0.439,-0.439,0,0,0,0,0,0,-0.4643,-0.4654,-0.4789,-0.4724,-0.4717,-0.4674,-0.4674,-0.4679,-0.4623,-0.4662,-0.4651,-0.4662,-0.452,-0.4535,-0.4526,-0.4539,-0.4439,-0.4438,-0.4437,-0.4436,-0.439,-0.439,0,0,0,0,0,0,-0.4647,-0.4656,-0.4722,-0.4717,-0.4711,-0.4719,-0.4671,-0.4714,-0.4647,-0.4664,-0.4631,-0.4624,-0.4526,-0.4518,-0.4532,-0.455,-0.4542,-0.4439,-0.4438,-0.4437,-0.4437,0,0,0,0,0,0,0,-0.4649,-0.4601,-0.4786,-0.4712,-0.4706,-0.4806,-0.4806,-0.4806,-0.4646,-0.4639,-0.4633,-0.4627,-0.4447,-0.4446,-0.4444,-0.4559,0,0,-0.4439,-0.4439,0,0,0,0,0,0,0,0,-0.4596,-0.46,-0.4786,-0.4786,-0.4787,-0.4806,-0.4806,-0.4806,-0.4644,-0.4639,-0.4634,-0.463,-0.4447,-0.4446,-0.4444,0,0,0,0,0,0,0,0,0,0,0,0,0,0,0,-0.4786,-0.4786,0,-0.4806,-0.4806,-0.4806,-0.4644,-0.464,-0.4635,-0.4632,-0.4447,-0.4445,-0.4444,0,0,0,0,0,0,0,0,0,0,0,0,0,0,0,0,0,0,0,0,0,0,0,0,0,0,0,0,0,0,0,0,0,0,0,0,0,0,0,0,0,0,0,0,0,0,0,0,0,0,0,0,0,0,0,0,0,0,0,0,0,0,0,0,0,0,0,0,0]}],[{"header":{"parameterUnit":"kt","parameterCategory":2,"dx":1,"dy":1,"la1":30.253999710083008,"la2":30.299108505249023,"lo1":-89.0895004272461,"lo2":-89.04439544677734,"nx":28,"ny":28,"refTime":"2022-10-14T21:00:00:Z","depth":"2","parameterNumber":3,"parameterNumberName":"V-component_of_CURRENTS"},"data":[-0.1472,-0.1609,-0.1668,-0.1786,-0.1808,-0.177,-0.1673,-0.1461,-0.1222,-0.0943,-0.0715,-0.0578,-0.0077,0.013,0.0404,0.0639,0.0697,0.0654,0.0784,0.0617,0.0622,0.0828,0.06,0,0,0,0,0,-0.1402,-0.148,-0.1577,-0.1631,-0.1677,-0.1639,-0.1509,-0.1401,-0.1176,-0.0911,-0.0682,-0.0374,-0.0075,0.0332,0.0652,0.0845,0.0793,0.096,0.0846,0.0851,0.0857,0.071,0.0798,0.0799,0.08,0.0801,0,0,-0.128,-0.1348,-0.139,-0.1468,-0.1496,-0.1465,-0.142,-0.1286,-0.1122,-0.0835,-0.0597,-0.0296,0.001,0.0417,0.0705,0.097,0.0952,0.1015,0.1013,0.1014,0.0879,0.0819,0.1008,0.1009,0.1011,0.1012,0.1013,0,-0.1165,-0.1175,-0.1196,-0.127,-0.1299,-0.1288,-0.124,-0.1179,-0.0949,-0.0792,-0.0475,-0.028,0.0139,0.041,0.0767,0.0913,0.1011,0.108,0.1211,0.075,0.069,0.0689,0.067,0.0873,0.0874,0.0875,0.0875,0.0876,-0.1037,-0.1062,-0.1051,-0.1086,-0.1082,-0.1079,-0.1081,-0.0936,-0.0869,-0.056,-0.0498,-0.0174,0.0036,0.0512,0.0711,0.1002,0.1066,0.1096,0.0922,0.0949,0.0955,0.0926,0.0899,0.0886,0.0884,0.0883,0.0882,0,-0.0974,-0.0932,-0.0954,-0.0897,-0.0889,-0.0908,-0.0843,-0.0815,-0.0677,-0.0564,-0.0525,-0.0247,0.0044,0.028,0.0596,0.0684,0.0914,0.1004,0.0837,0.0845,0.0904,0.0878,0.1177,0.1179,0.1181,0.1182,0.1183,0,-0.0847,-0.0866,-0.0806,-0.082,-0.0832,-0.075,-0.0735,-0.0662,-0.0549,-0.0469,-0.0334,-0.0216,-0.0023,0.0194,0.0338,0.0595,0.0641,0.0686,0.0722,0.0574,0.0558,0.0627,0.0612,0.0732,0.0729,0.0726,0.0724,0,-0.0774,-0.0745,-0.0757,-0.0749,-0.0686,-0.0674,-0.0639,-0.0534,-0.0489,-0.0356,-0.0308,-0.0146,-0.0067,0.0094,0.0278,0.0206,0.0568,0.0498,0.063,0.0631,0.0624,0.0616,0.0721,0.0721,0.072,0.0719,0.0718,0,-0.0685,-0.0669,-0.0683,-0.0634,-0.0624,-0.0625,-0.055,-0.0514,-0.0393,-0.0348,-0.026,-0.0197,-0.0078,-0.0106,0.0146,0.0035,0.0158,0.0244,0.0258,0.0313,0.0289,0.0426,0.0483,0.0414,0.041,0.0407,0.0403,0,-0.0637,-0.0633,-0.0584,-0.0597,-0.0594,-0.053,-0.0505,-0.0442,-0.039,-0.0329,-0.025,-0.0206,-0.0204,-0.0199,-0.0125,-0.0022,0.0085,-0.0068,0.0249,0.0262,0.0239,0.0292,0.0151,0.0429,0.0358,0.0363,0.0366,0,-0.0593,-0.0536,-0.0545,-0.0537,-0.0496,-0.0473,-0.0454,-0.0386,-0.0354,-0.0335,-0.0276,-0.0247,-0.0213,-0.0174,-0.0153,-0.0085,0.0017,-0.0078,-0.007,0.0057,0.0258,0.0234,0.0263,-0.0009,-0.0005,-0.0002,0.033,0,-0.0515,-0.051,-0.0513,-0.0477,-0.0453,-0.045,-0.0387,-0.0378,-0.0374,-0.0324,-0.0283,-0.0244,-0.0183,-0.0204,-0.0186,-0.0118,-0.0079,-0.009,-0.0038,-0.0044,0.0102,0.0129,-0.0164,-0.0162,-0.016,-0.0159,0,0,-0.0495,-0.0464,-0.0407,-0.0398,-0.038,-0.0333,-0.033,-0.0302,-0.0264,-0.0233,-0.0266,-0.0192,-0.0174,-0.011,-0.0137,-0.0135,-0.0059,-0.0126,-0.0062,-0.0053,-0.0043,0.0095,0.0119,-0.0155,-0.0155,-0.0154,-0.0154,0,-0.0443,-0.0414,-0.041,-0.0378,-0.0335,-0.0295,-0.0303,-0.0253,-0.0243,-0.0237,-0.0208,-0.0191,-0.0172,-0.0119,-0.0092,-0.0118,-0.0033,-0.0144,-0.0148,-0.0052,-0.0045,-0.0038,0.0098,0.0119,-0.0149,-0.0149,-0.015,0,-0.0399,-0.0353,-0.0344,-0.0279,-0.025,-0.0232,-0.0193,-0.0186,-0.0177,-0.0132,-0.0149,-0.013,-0.0074,-0.0072,-0.0072,-0.0051,0.0017,-0.0056,-0.0063,-0.0007,0.0098,0.0105,0.0111,0.004,0.004,0.004,0,0,-0.0368,-0.0349,-0.0268,-0.0262,-0.0245,-0.0193,-0.0181,-0.0165,-0.0135,-0.0138,-0.0119,-0.0096,-0.0069,-0.0065,-0.0033,-0.0027,0.0077,-0.0038,-0.0047,-0.0055,-0.0005,0.0098,0.0104,0.0041,0.0041,0.0041,0,0,-0.0351,-0.0268,-0.0249,-0.0232,-0.0187,-0.0114,-0.0127,-0.011,-0.0104,-0.0128,-0.0081,-0.0075,-0.0084,-0.0043,-0.0044,-0.0035,0.001,0.0011,-0.0081,-0.0091,-0.0099,-0.0049,-0.0005,0,0,0,0,0,-0.0265,-0.027,-0.0253,-0.024,-0.0165,-0.0112,-0.0104,-0.0087,-0.0103,-0.0113,-0.01,-0.0079,-0.0033,-0.0032,-0.0022,-0.0053,0.0046,0.0045,0.0044,-0.007,-0.0082,-0.0091,0,0,0,0,0,0,-0.0259,-0.0243,-0.0252,-0.0177,-0.016,-0.0112,-0.0101,-0.0096,-0.0103,-0.0106,-0.008,-0.0076,-0.004,-0.0034,-0.0026,-0.0057,-0.0007,0.0045,0.0045,0.0044,-0.0074,-0.0083,-0.0091,0,0,0,0,0,-0.0254,-0.0241,-0.013,-0.0177,-0.0162,-0.0128,-0.0103,-0.0099,-0.0118,-0.0058,-0.0055,-0.0112,-0.0039,-0.0032,-0.0029,-0.0062,-0.0013,-0.001,0.0045,0.0044,0.0044,-0.0079,0,0,0,0,0,0,-0.0251,-0.0239,-0.0127,-0.0121,-0.0195,-0.0132,-0.0123,-0.0101,-0.0071,-0.0067,-0.0084,-0.0086,-0.0038,-0.0033,-0.0028,-0.0068,-0.0017,-0.0014,-0.0012,0.0044,0.0044,0.0043,0,0,0,0,0,0,-0.0246,-0.0235,-0.0124,-0.0148,-0.0145,-0.0136,-0.0128,-0.0092,-0.0071,-0.01,-0.0099,-0.0085,-0.0052,-0.0033,-0.0029,0.0028,-0.0021,-0.0018,-0.0016,-0.0015,0.0044,0.0044,0,0,0,0,0,0,-0.024,-0.0231,-0.0149,-0.0147,-0.0144,-0.0081,-0.0105,-0.0037,-0.0072,-0.0102,-0.0076,-0.0078,-0.0053,-0.0048,-0.003,0.0026,0.0028,-0.0021,-0.0019,-0.0017,-0.0016,0,0,0,0,0,0,0,-0.0236,-0.0307,-0.0158,-0.0146,-0.0144,-0.0067,-0.0066,-0.0065,-0.0072,-0.0074,-0.0076,-0.0078,-0.0037,-0.0034,-0.0031,0.0024,0,0,-0.0021,-0.002,0,0,0,0,0,0,0,0,-0.031,-0.0307,-0.0157,-0.0156,-0.0155,-0.0067,-0.0066,-0.0065,-0.0073,-0.0074,-0.0076,-0.0077,-0.0036,-0.0034,-0.0031,0,0,0,0,0,0,0,0,0,0,0,0,0,0,0,-0.0157,-0.0156,0,-0.0067,-0.0066,-0.0065,-0.0073,-0.0074,-0.0075,-0.0076,-0.0036,-0.0034,-0.0032,0,0,0,0,0,0,0,0,0,0,0,0,0,0,0,0,0,0,0,0,0,0,0,0,0,0,0,0,0,0,0,0,0,0,0,0,0,0,0,0,0,0,0,0,0,0,0,0,0,0,0,0,0,0,0,0,0,0,0,0,0,0,0,0,0,0,0,0,0]}]],[[{"header":{"parameterUnit":"kt","parameterCategory":2,"dx":1,"dy":1,"la1":30.253999710083008,"la2":30.299108505249023,"lo1":-89.0895004272461,"lo2":-89.04439544677734,"nx":28,"ny":28,"refTime":"2022-10-14T21:00:00:Z","depth":"4","parameterNumber":2,"parameterNumberName":"U-component_of_CURRENTS"},"data":[-0.1402,-0.1376,-0.1356,-0.119,-0.1128,-0.1108,-0.1171,-0.1258,-0.1221,-0.1346,-0.1403,-0.1495,-0.1586,-0.162,-0.1649,-0.1669,-0.1934,-0.1858,-0.1855,-0.2405,-0.2444,-0.2479,-0.243,0,0,0,0,0,-0.1474,-0.142,-0.1415,-0.1396,-0.1398,-0.1414,-0.1507,-0.161,-0.1705,-0.1569,-0.1699,-0.1619,-0.1655,-0.1734,-0.1705,-0.1824,-0.2129,-0.1782,-0.2244,-0.2429,-0.2473,-0.241,0,0,0,0,0,0,-0.1559,-0.1542,-0.1582,-0.1607,-0.164,-0.1607,-0.1722,-0.1693,-0.1779,-0.1843,-0.1775,-0.1831,-0.2018,-0.2048,-0.1935,-0.1947,-0.213,-0.2207,-0.2259,-0.2303,-0.2211,-0.1976,-0.1636,0,0,0,0,0,-0.1638,-0.1697,-0.1724,-0.1768,-0.1823,-0.1887,-0.1948,-0.1972,-0.2107,-0.223,-0.2113,-0.2169,-0.2106,-0.2289,-0.2203,-0.223,-0.2655,-0.2476,-0.2509,-0.2837,-0.2701,-0.261,-0.2619,-0.2639,-0.2645,-0.2648,-0.265,0,-0.1762,-0.1769,-0.19,-0.1918,-0.1972,-0.209,-0.2151,-0.2374,-0.2387,-0.2458,-0.2379,-0.2508,-0.2579,-0.2425,-0.2622,-0.2637,-0.2635,-0.2584,-0.2931,-0.2771,-0.2669,-0.2668,-0.2665,-0.2686,-0.2683,-0.268,-0.2677,0,-0.1819,-0.1897,-0.1934,-0.2052,-0.2106,-0.2155,-0.2343,-0.2405,-0.2576,-0.2605,-0.269,-0.289,-0.2917,-0.3007,-0.3147,-0.31,-0.3048,-0.2927,-0.3119,-0.3018,-0.2738,-0.272,-0.2743,-0.273,-0.272,-0.2711,-0.2703,0,-0.194,-0.196,-0.2079,-0.2088,-0.2146,-0.2254,-0.2364,-0.2481,-0.2649,-0.2683,-0.2938,-0.2954,-0.3313,-0.3285,-0.3334,-0.3199,-0.3389,-0.3215,-0.3111,-0.3449,-0.3429,-0.3493,-0.3475,-0.3655,-0.3656,-0.3656,-0.3657,0,-0.1994,-0.2083,-0.2108,-0.2139,-0.2244,-0.229,-0.2372,-0.2526,-0.2624,-0.2854,-0.2895,-0.3148,-0.3245,-0.3382,-0.3356,-0.3431,-0.34,-0.3489,-0.3148,-0.3113,-0.3491,-0.3472,-0.3658,-0.3658,-0.3658,-0.3659,-0.3659,0,-0.2082,-0.2111,-0.2152,-0.2234,-0.2251,-0.2309,-0.2417,-0.252,-0.2683,-0.2783,-0.2948,-0.3063,-0.3212,-0.3248,-0.3395,-0.3335,-0.3337,-0.3331,-0.3325,-0.3053,-0.2831,-0.2985,-0.3102,-0.3099,-0.3096,-0.3094,-0.3091,0,-0.2091,-0.2138,-0.2193,-0.225,-0.2266,-0.2347,-0.2428,-0.2527,-0.2635,-0.2737,-0.286,-0.2999,-0.3045,-0.3083,-0.3158,-0.3174,-0.3206,-0.3147,-0.3157,-0.3158,-0.2802,-0.2847,-0.3154,-0.3054,-0.3058,-0.3062,-0.3064,0,-0.2091,-0.2177,-0.2187,-0.221,-0.2295,-0.232,-0.2417,-0.2498,-0.2569,-0.2701,-0.2785,-0.2932,-0.2992,-0.3026,-0.2989,-0.3042,-0.3126,-0.2997,-0.3001,-0.2923,-0.321,-0.2838,-0.2822,-0.3118,-0.3125,-0.3131,-0.3038,0,-0.211,-0.2157,-0.2178,-0.2234,-0.2273,-0.2313,-0.2384,-0.2448,-0.2516,-0.2578,-0.2717,-0.2778,-0.286,-0.2831,-0.2819,-0.2932,-0.2847,-0.2848,-0.2785,-0.2879,-0.2806,-0.2827,-0.2591,-0.2591,-0.2591,-0.2591,0,0,-0.2085,-0.212,-0.2162,-0.2196,-0.2222,-0.2271,-0.2297,-0.2364,-0.2435,-0.2475,-0.2501,-0.2645,-0.2662,-0.271,-0.2742,-0.2712,-0.2702,-0.2663,-0.281,-0.2833,-0.2856,-0.2795,-0.2814,-0.2592,-0.2592,-0.2592,-0.2592,0,-0.2068,-0.2114,-0.2145,-0.218,-0.2231,-0.2252,-0.2272,-0.2318,-0.2368,-0.2453,-0.2468,-0.2537,-0.2577,-0.2601,-0.2614,-0.2695,-0.2659,-0.2663,-0.2716,-0.2805,-0.2828,-0.2849,-0.2792,-0.281,-0.2593,-0.2593,-0.2593,0,-0.2044,-0.2074,-0.21,-0.2151,-0.2175,-0.2209,-0.221,-0.2263,-0.2315,-0.2304,-0.2389,-0.2427,-0.2457,-0.2501,-0.2528,-0.2473,-0.2581,-0.2522,-0.2523,-0.2643,-0.274,-0.2765,-0.2788,-0.25,-0.25,-0.2499,0,0,-0.2031,-0.2075,-0.2104,-0.2146,-0.216,-0.2191,-0.2219,-0.2246,-0.2282,-0.2306,-0.2333,-0.2372,-0.2428,-0.2416,-0.2491,-0.2488,-0.2536,-0.2506,-0.251,-0.2513,-0.2631,-0.2731,-0.2755,-0.2496,-0.2496,-0.2496,0,0,-0.2018,-0.2061,-0.2074,-0.2121,-0.2155,-0.218,-0.2214,-0.2233,-0.2284,-0.23,-0.2305,-0.2314,-0.2402,-0.2388,-0.2349,-0.2428,-0.2419,-0.2427,-0.2387,-0.2393,-0.2398,-0.2528,-0.2319,0,0,0,0,0,-0.2016,-0.2052,-0.2063,-0.2074,-0.2132,-0.217,-0.218,-0.2215,-0.2225,-0.2255,-0.229,-0.2275,-0.2379,-0.2344,-0.235,-0.2355,-0.2458,-0.2465,-0.2471,-0.2432,-0.2438,-0.2443,0,0,0,0,0,0,-0.202,-0.2032,-0.2062,-0.2085,-0.2099,-0.2168,-0.2165,-0.2175,-0.2223,-0.2228,-0.2269,-0.2274,-0.2275,-0.234,-0.2345,-0.2351,-0.2317,-0.2461,-0.2466,-0.2472,-0.2434,-0.2439,-0.2443,0,0,0,0,0,-0.2024,-0.2033,-0.2119,-0.2086,-0.2098,-0.2148,-0.2166,-0.2174,-0.2219,-0.2233,-0.2241,-0.2249,-0.2274,-0.2281,-0.2343,-0.2348,-0.2313,-0.2315,-0.2464,-0.2469,-0.2473,-0.2437,0,0,0,0,0,0,-0.2027,-0.2039,-0.2122,-0.2127,-0.2088,-0.2147,-0.2157,-0.2173,-0.2222,-0.223,-0.221,-0.2213,-0.2274,-0.2279,-0.2284,-0.2348,-0.231,-0.2312,-0.2313,-0.2468,-0.2471,-0.2475,0,0,0,0,0,0,-0.2035,-0.2043,-0.2125,-0.2126,-0.2131,-0.2145,-0.2155,-0.2174,-0.2222,-0.2195,-0.22,-0.221,-0.2264,-0.2278,-0.2282,-0.231,-0.2308,-0.231,-0.2311,-0.2312,-0.2471,-0.2473,0,0,0,0,0,0,-0.2039,-0.2047,-0.2125,-0.2129,-0.2134,-0.2194,-0.2163,-0.222,-0.2229,-0.2192,-0.223,-0.2231,-0.2262,-0.2267,-0.228,-0.2306,-0.2309,-0.2308,-0.2309,-0.231,-0.2311,0,0,0,0,0,0,0,-0.2043,-0.1984,-0.2093,-0.2131,-0.2136,-0.2175,-0.2177,-0.2178,-0.2229,-0.2229,-0.223,-0.223,-0.2297,-0.2299,-0.2301,-0.2303,0,0,-0.2308,-0.2309,0,0,0,0,0,0,0,0,-0.1982,-0.1983,-0.2093,-0.2094,-0.2095,-0.2176,-0.2177,-0.2178,-0.2229,-0.2229,-0.223,-0.223,-0.2297,-0.2299,-0.2301,0,0,0,0,0,0,0,0,0,0,0,0,0,0,0,-0.2093,-0.2094,0,-0.2176,-0.2177,-0.2178,-0.2229,-0.2229,-0.223,-0.223,-0.2298,-0.2299,-0.2301,0,0,0,0,0,0,0,0,0,0,0,0,0,0,0,0,0,0,0,0,0,0,0,0,0,0,0,0,0,0,0,0,0,0,0,0,0,0,0,0,0,0,0,0,0,0,0,0,0,0,0,0,0,0,0,0,0,0,0,0,0,0,0,0,0,0,0,0,0]}],[{"header":{"parameterUnit":"kt","parameterCategory":2,"dx":1,"dy":1,"la1":30.253999710083008,"la2":30.299108505249023,"lo1":-89.0895004272461,"lo2":-89.04439544677734,"nx":28,"ny":28,"refTime":"2022-10-14T21:00:00:Z","depth":"4","parameterNumber":3,"parameterNumberName":"V-component_of_CURRENTS"},"data":[-0.0914,-0.1042,-0.1113,-0.1259,-0.1345,-0.1469,-0.1498,-0.1495,-0.1393,-0.1348,-0.1193,-0.1129,-0.086,-0.1004,-0.0591,-0.0545,-0.0611,-0.026,-0.0255,-0.0431,-0.0452,-0.0471,-0.0418,0,0,0,0,0,-0.0893,-0.0974,-0.112,-0.1273,-0.1401,-0.147,-0.1541,-0.1578,-0.1559,-0.1417,-0.1406,-0.1185,-0.0898,-0.0795,-0.0597,-0.0612,-0.0518,-0.0376,-0.053,-0.0444,-0.0468,-0.0408,0,0,0,0,0,0,-0.0864,-0.0944,-0.1075,-0.1228,-0.1374,-0.1448,-0.1529,-0.1512,-0.1551,-0.1491,-0.1396,-0.1232,-0.1158,-0.0889,-0.0702,-0.0542,-0.0522,-0.0519,-0.0537,-0.0558,-0.0518,-0.0457,-0.0332,0,0,0,0,0,-0.0828,-0.0883,-0.1001,-0.1171,-0.1301,-0.1444,-0.1547,-0.1568,-0.1604,-0.1663,-0.1492,-0.1349,-0.1156,-0.0959,-0.0791,-0.0631,-0.0718,-0.0609,-0.0622,-0.0647,-0.0606,-0.0576,-0.0586,-0.0557,-0.056,-0.0562,-0.0563,0,-0.0756,-0.0835,-0.1021,-0.1114,-0.1195,-0.1357,-0.1459,-0.1562,-0.159,-0.1599,-0.1574,-0.1484,-0.1395,-0.1086,-0.0961,-0.0749,-0.0702,-0.067,-0.0696,-0.0644,-0.0608,-0.0612,-0.0614,-0.0582,-0.058,-0.0579,-0.0577,0,-0.0714,-0.0791,-0.0944,-0.1098,-0.1158,-0.1267,-0.1434,-0.1517,-0.1573,-0.1612,-0.1626,-0.1579,-0.1413,-0.1306,-0.1172,-0.1049,-0.0894,-0.0806,-0.0984,-0.0952,-0.0651,-0.0646,-0.0613,-0.0606,-0.06,-0.0595,-0.0591,0,-0.0668,-0.0772,-0.0889,-0.0965,-0.1125,-0.1191,-0.1343,-0.1394,-0.147,-0.151,-0.1508,-0.1483,-0.1419,-0.133,-0.1206,-0.0998,-0.1112,-0.0861,-0.082,-0.1008,-0.1002,-0.0943,-0.0929,-0.1069,-0.1069,-0.107,-0.107,0,-0.0576,-0.073,-0.0854,-0.0904,-0.1045,-0.1121,-0.119,-0.1264,-0.1324,-0.1375,-0.1397,-0.1398,-0.1387,-0.1318,-0.1153,-0.1149,-0.1064,-0.1064,-0.0847,-0.0832,-0.0938,-0.0924,-0.107,-0.107,-0.107,-0.107,-0.107,0,-0.0531,-0.0607,-0.0758,-0.0899,-0.0929,-0.1013,-0.112,-0.1187,-0.1239,-0.124,-0.126,-0.1215,-0.1245,-0.115,-0.1112,-0.1089,-0.103,-0.0976,-0.0974,-0.0731,-0.0649,-0.0772,-0.0911,-0.091,-0.0909,-0.0908,-0.0907,0,-0.0443,-0.0572,-0.0595,-0.074,-0.0811,-0.0816,-0.0903,-0.0949,-0.0954,-0.1008,-0.0994,-0.1042,-0.096,-0.0975,-0.0985,-0.0921,-0.0949,-0.0931,-0.0835,-0.0832,-0.065,-0.0732,-0.0914,-0.0896,-0.0897,-0.0898,-0.0899,0,-0.0356,-0.0444,-0.0456,-0.0521,-0.0567,-0.0601,-0.0679,-0.074,-0.0793,-0.0791,-0.0865,-0.0907,-0.0863,-0.0875,-0.0849,-0.0867,-0.0927,-0.0779,-0.0776,-0.077,-0.0936,-0.074,-0.0728,-0.0903,-0.0905,-0.0907,-0.0891,0,-0.0334,-0.0378,-0.04,-0.0451,-0.0478,-0.052,-0.0525,-0.0553,-0.0538,-0.0548,-0.0609,-0.0598,-0.0637,-0.0656,-0.0626,-0.0723,-0.066,-0.0629,-0.0576,-0.0675,-0.0651,-0.0658,-0.0527,-0.0524,-0.0521,-0.0519,0,0,-0.025,-0.0288,-0.0244,-0.0295,-0.0323,-0.0267,-0.0334,-0.0342,-0.0351,-0.0376,-0.0329,-0.039,-0.0392,-0.0498,-0.0532,-0.0526,-0.0493,-0.0513,-0.0623,-0.0635,-0.0646,-0.0629,-0.0638,-0.0514,-0.0513,-0.0512,-0.0512,0,-0.0229,-0.0199,-0.023,-0.0246,-0.0241,-0.0238,-0.0244,-0.0238,-0.0243,-0.029,-0.0261,-0.0294,-0.032,-0.0358,-0.0375,-0.0482,-0.042,-0.0479,-0.0579,-0.06,-0.0616,-0.0629,-0.0616,-0.0627,-0.0505,-0.0506,-0.0506,0,-0.018,-0.0165,-0.0166,-0.0161,-0.0153,-0.0197,-0.0128,-0.0137,-0.0184,-0.0115,-0.0178,-0.0163,-0.0164,-0.0235,-0.0258,-0.0232,-0.0349,-0.0319,-0.0331,-0.0318,-0.0335,-0.0353,-0.0369,-0.0158,-0.0158,-0.0157,0,0,-0.0166,-0.0169,-0.0147,-0.0152,-0.0151,-0.0129,-0.0128,-0.0117,-0.0114,-0.0116,-0.0113,-0.0116,-0.0141,-0.0162,-0.0168,-0.0233,-0.0196,-0.0282,-0.0298,-0.0312,-0.0307,-0.0327,-0.0345,-0.0155,-0.0155,-0.0155,0,0,-0.0157,-0.013,-0.0112,-0.0115,-0.0115,-0.0095,-0.0105,-0.0087,-0.0097,-0.009,-0.0066,-0.0066,-0.0116,-0.0097,-0.0067,-0.0178,-0.0103,-0.0108,-0.0218,-0.0237,-0.0253,-0.0247,-0.0029,0,0,0,0,0,-0.012,-0.0133,-0.0117,-0.0112,-0.0092,-0.0102,-0.0101,-0.0079,-0.0052,-0.0075,-0.0065,-0.004,-0.0085,-0.0058,-0.0059,-0.0137,-0.0124,-0.0129,-0.0135,-0.0287,-0.0308,-0.0326,0,0,0,0,0,0,-0.0118,-0.0113,-0.0116,-0.0094,-0.0088,-0.0101,-0.0058,-0.0054,-0.005,-0.0047,-0.0043,-0.004,-0.0029,-0.0055,-0.0057,-0.0132,-0.0028,-0.0126,-0.0131,-0.0135,-0.0294,-0.0311,-0.0326,0,0,0,0,0,-0.0116,-0.0112,-0.0082,-0.0094,-0.009,-0.0062,-0.0058,-0.0054,-0.0058,-0.0037,-0.0035,-0.004,-0.003,-0.003,-0.0056,-0.0133,-0.0026,-0.0027,-0.0129,-0.0133,-0.0136,-0.0303,0,0,0,0,0,0,-0.0115,-0.0121,-0.0081,-0.0079,-0.0083,-0.0062,-0.0058,-0.0054,-0.0049,-0.0045,-0.0033,-0.0031,-0.0031,-0.0031,-0.0031,-0.0136,-0.0025,-0.0026,-0.0027,-0.0132,-0.0135,-0.0137,0,0,0,0,0,0,-0.0122,-0.0119,-0.008,-0.0067,-0.0063,-0.0062,-0.0059,-0.007,-0.005,-0.0047,-0.0043,-0.0032,-0.0026,-0.0031,-0.0032,-0.0052,-0.0024,-0.0025,-0.0026,-0.0026,-0.0134,-0.0137,0,0,0,0,0,0,-0.0121,-0.0118,-0.0068,-0.0065,-0.0062,-0.0042,-0.0073,-0.0055,-0.0032,-0.0048,-0.0029,-0.0027,-0.0027,-0.0027,-0.0032,-0.0052,-0.0052,-0.0024,-0.0025,-0.0025,-0.0025,0,0,0,0,0,0,0,-0.012,-0.0139,-0.0086,-0.0063,-0.0061,-0.0058,-0.0058,-0.0058,-0.0031,-0.003,-0.0029,-0.0028,-0.002,-0.0021,-0.0022,-0.0052,0,0,-0.0024,-0.0025,0,0,0,0,0,0,0,0,-0.014,-0.0139,-0.0086,-0.0085,-0.0084,-0.0058,-0.0058,-0.0058,-0.0031,-0.003,-0.0029,-0.0028,-0.002,-0.0021,-0.0022,0,0,0,0,0,0,0,0,0,0,0,0,0,0,0,-0.0086,-0.0085,0,-0.0058,-0.0058,-0.0058,-0.0031,-0.003,-0.0029,-0.0029,-0.002,-0.0021,-0.0021,0,0,0,0,0,0,0,0,0,0,0,0,0,0,0,0,0,0,0,0,0,0,0,0,0,0,0,0,0,0,0,0,0,0,0,0,0,0,0,0,0,0,0,0,0,0,0,0,0,0,0,0,0,0,0,0,0,0,0,0,0,0,0,0,0,0,0,0,0]}]]]